Weather History for Del Rio, TX

Change the Weather History Date:

Thursday, April 11, 2013

  Actual Average Record
Temperature  
Mean Temperature 67 °F 70 °F  
Max Temperature 81 °F 83 °F 106 °F (1907)
Min Temperature 52 °F 58 °F 40 °F (1988)
Degree Days  
Heating Degree Days 0 1  
Month to date heating degree days 12 15  
Since 1 July heating degree days 997 1365  
Cooling Degree Days 2 7  
Month to date cooling degree days 67 62  
Year to date cooling degree days 254 168  
Growing Degree Days 17 (Base 50)    
Moisture  
Dew Point 34 °F    
Average Humidity 33    
Maximum Humidity 50    
Minimum Humidity 16    
Precipitation  
Precipitation 0.00 in 0.05 in 2.94 in (1969)
Month to date precipitation 0.33 0.48  
Year to date precipitation 1.72 3.22  
Sea Level Pressure  
Sea Level Pressure 29.82 in    
Wind  
Wind Speed 6 mph (ENE)    
Max Wind Speed 12 mph    
Max Gust Speed 15 mph    
Visibility 10 miles    
Events      
T = Trace of Precipitation, MM = Missing Value Source: NWS Daily Summary

Daily Weather History Graph

Daily Weather History Graph

Search for Another Location

Airport:

Trip Planner

Search our weather history database for the weather conditions in past years. The results will help you decide how hot, cold, wet, or windy it might be!

Date:

Astronomy

Apr. 11, 2013 Rise Set
Actual Time 7:21 AM CDT 8:08 PM CDT
Civil Twilight 6:57 AM CDT 8:32 PM CDT
Nautical Twilight 6:28 AM CDT 9:00 PM CDT
Astronomical Twilight 5:59 AM CDT 9:30 PM CDT
Moon 8:00 AM CDT (4/11) 9:35 PM CDT (4/11)
Length of Visible Light 13h 35m
Length of Day
12h 46m
New Moon, 2% of the Moon is Illuminated
Apr 11
New Moon
Apr 18
First Quarter
Apr 25
Full
May 2
Last Quarter
May 9
New

Hourly Weather History & Observations

Time (CDT) Temp. Dew Point Humidity Pressure Visibility Wind Dir Wind Speed Gust Speed Precip Events Conditions
12:53 AM 64.0 °F 35.1 °F 34% 29.91 in 10.0 mi NE 5.8 mph - N/A   Scattered Clouds
1:53 AM 63.0 °F 35.1 °F 35% 29.89 in 10.0 mi NE 4.6 mph - N/A   Clear
2:53 AM 61.0 °F 35.1 °F 38% 29.87 in 10.0 mi WNW 6.9 mph - N/A   Partly Cloudy
3:53 AM 60.1 °F 35.1 °F 39% 29.85 in 10.0 mi North 3.5 mph - N/A   Clear
4:53 AM 57.0 °F 36.0 °F 45% 29.85 in 10.0 mi NNW 3.5 mph - N/A   Clear
5:53 AM 55.0 °F 35.1 °F 47% 29.86 in 10.0 mi NNW 4.6 mph - N/A   Clear
6:53 AM 53.1 °F 36.0 °F 52% 29.88 in 10.0 mi North 5.8 mph - N/A   Clear
7:53 AM 53.1 °F 34.0 °F 48% 29.89 in 10.0 mi NE 6.9 mph - N/A   Clear
8:53 AM 57.0 °F 32.0 °F 39% 29.91 in 10.0 mi ENE 9.2 mph - N/A   Clear
9:53 AM 60.1 °F 30.0 °F 32% 29.91 in 10.0 mi NE 8.1 mph - N/A   Clear
10:53 AM 64.0 °F 28.9 °F 27% 29.91 in 10.0 mi Variable 4.6 mph - N/A   Clear
11:53 AM 66.2 °F 30.2 °F 26% 29.91 in 10.0 mi East 6.9 mph - N/A   Clear
12:53 PM 70.0 °F 33.1 °F 26% 29.84 in 10.0 mi SW 6.9 mph - N/A   Clear
1:53 PM 73.0 °F 32.0 °F 22% 29.80 in 10.0 mi SE 9.2 mph - N/A   Clear
2:53 PM 75.0 °F 32.0 °F 21% 29.76 in 10.0 mi Variable 4.6 mph - N/A   Clear
3:53 PM 79.0 °F 32.0 °F 18% 29.73 in 10.0 mi Variable 3.5 mph - N/A   Clear
4:53 PM 80.1 °F 30.9 °F 17% 29.70 in 10.0 mi Calm Calm - N/A   Clear
5:53 PM 80.1 °F 32.0 °F 17% 29.70 in 10.0 mi Variable 5.8 mph - N/A   Clear
6:53 PM 79.0 °F 32.0 °F 18% 29.70 in 10.0 mi Calm Calm - N/A   Clear
7:53 PM 77.0 °F 34.0 °F 21% 29.70 in 10.0 mi SSE 9.2 mph - N/A   Clear
8:53 PM 72.0 °F 36.0 °F 27% 29.72 in 10.0 mi SSE 6.9 mph - N/A   Clear
9:53 PM 71.1 °F 37.9 °F 30% 29.75 in 10.0 mi SE 5.8 mph - N/A   Clear
10:53 PM 68.0 °F 39.9 °F 36% 29.78 in 10.0 mi ESE 8.1 mph - N/A   Clear
11:53 PM 66.9 °F 39.9 °F 37% 29.80 in 10.0 mi East 6.9 mph - N/A   Clear